Regional Weather Roundup
Issued by NWS

Home | Current Version | Previous Version | Text Only | Print | Product List | Glossary On
Versions: 1 2 3 4 5 6 7 8 9 10 11 12 13 14 15 16 17 18 19 20 21 22 23 24 25 26 27 28 29 30 31 32 33 34 35 36 37 38 39 40 41 42 43 44 45 46 47 48 49 50
000
ASUS42 KTBW 200410
RWRFL
FLORIDA REGIONAL WEATHER ROUNDUP
NATIONAL WEATHER SERVICE TAMPA BAY RUSKIN FL
1200 AM EDT SAT SEP 20 2014

NOTE: "FAIR" INDICATES FEW OR NO CLOUDS BELOW 12,000 FEET WITH NO
SIGNIFICANT WEATHER AND/OR OBSTRUCTIONS TO VISIBILITY.


FLZ001>010-012>015-112-114-115-200500-
PANHANDLE FLORIDA

CITY           SKY/WX    TMP DP  RH WIND       PRES   REMARKS
PENSACOLA      CLEAR     74  69  85 NE5       30.00R
PENSACOLA NAS  CLEAR     79  68  69 E8        29.98F
MILTON NAS     PTCLDY    73  65  75 CALM      30.01F
CRESTVIEW      PTCLDY    69  68  96 CALM      30.03R
DUKE FIELD     PTCLDY    72  72  98 N6        30.02R
VALPARAISO     PTCLDY    75  67  76 E5        30.01S
MARY ESTHER    PTCLDY    74  64  70 NE6       29.99S
TRI COUNTY     FAIR      68  67  96 MISG      30.03S
PANAMA CITY    FAIR      70  67  90 NW5       29.99F
TYNDALL AFB    CLEAR     71  70  97 NE6       30.00F
APALACHICOLA   PTCLDY    74  67  78 NE6       29.98F

STATION/POSITION SKY/WX   TEMP    WIND        PRES    WAVE   SWELL
                          AIR SEA DIR/SP/G            HT/PER HT/PER
                          (F)     (DEG/KT/KT) (MB)    (FT/S) (FT/S)
30.1N   87.6W              82 85  110/ 16/ 17 1015.1R   5/ 6
29.2N   88.2W              81 84   90/ 19/ 23 1014.5R   7/ 7
28.8N   86.0W              81 85  100/ 21/ 29 1013.8R   5/ 6
PANAMA CITY BEAC           74 85   20/  5/  7 1015.9R
CAPE SAN BLAS    NOT AVBL
TOWER C                    78     110/ 11/ 13 1015.2F
28.5N   84.5W              79 84  100/ 19/ 23 1014.4F   6/ 6

$$
FLZ011-016>038-118-127-128-134-139-239-200500-
NORTH FLORIDA

CITY           SKY/WX    TMP DP  RH WIND       PRES   REMARKS
MARIANNA       PTCLDY    71  71 100 N5        30.02R
TALLAHASSEE    PTCLDY    72  67  84 NE6       30.01F
PERRY          MOCLDY    70  70 100 CALM      30.02S
CROSS CITY       N/A     71  68  90 CALM      30.00S
LAKE CITY      FAIR      70  68  94 E3        30.02R
GAINESVILLE    CLOUDY    72  69  90 NE3       30.00S
MAYPORT NAS    LGT RAIN  79  71  76 SE14      30.00F
JACKSONVILLE   CLOUDY    70  70 100 CALM      30.01S
JAX NAS        CLOUDY    78  72  81 SE5       30.01S
JAX CRAIG      CLOUDY    78  70  76 E13       30.00F
JAX CECIL      CLOUDY    72  68  88 N5        30.01S
ST AUGUSTINE   LGT RAIN  73  68  84 SE5       30.02S

STATION/POSITION SKY/WX   TEMP    WIND        PRES    WAVE   SWELL
                          AIR SEA DIR/SP/G            HT/PER HT/PER
                          (F)     (DEG/KT/KT) (MB)    (FT/S) (FT/S)
SHELL POINT                75      50/  4/  7   N/A
KEATON BEACH               71      40/  3/  4 1015.9F
CEDAR KEY                  78     100/  8/ 10 1016.1R
FERNANDINA                 80 84   70/  5/ 11 1015.5F
30.7N   81.3W                 84                N/A     4/ 4
MAYPORT                    81 84   80/ 11/ 17   N/A
31.4N   80.9W              80 84   80/ 17/ 21 1016.4F   5/ 6   2/ 8
ST AUGUSTINE               77      30/  8/  9 1016.7R

$$
FLZ040-043>046-052-053-057-058-063-144-200500-
INTERIOR CENTRAL FLORIDA

CITY           SKY/WX    TMP DP  RH WIND       PRES   REMARKS
OCALA          CLOUDY    70  68  94 CALM      30.01R
THE VILLAGES     N/A     72  72 100 CALM      29.90F FOG
LEESBURG       LGT RAIN  73  70  90 E6        30.01R
SANFORD        LGT RAIN  72  70  93 E8        30.01R
ORLANDO EXEC   LGT RAIN  71  69  93 E7        30.00S
ORLANDO INTL   LGT RAIN  71  70  96 E7        30.00S
WINTER HAVEN   HVY RAIN  70  69  97 E13       30.00S FOG
LAKELAND       RAIN     N/A N/A N/A E9        29.99R
BARTOW         RAIN      70 N/A N/A E9        29.99S
OKEECHOBEE       N/A     70  70 100 MISG      29.98

$$
FLZ041-047-054-059-064-141-147-200500-
EAST CENTRAL FLORIDA

CITY           SKY/WX    TMP DP  RH WIND       PRES   REMARKS
DAYTONA BEACH  RAIN      71  69  93 SE6       30.01R FOG
DELAND         CLOUDY    72  70  94 E7        30.03R
JFK SPACE CTR  CLOUDY    73  70  92 E6        30.00S
CAPE CANAVERAL CLOUDY    72  70  94 VRB5      29.99S
PATRICK AFB    LGT RAIN  73  72  94 E17       29.98F FOG
MELBOURNE      CLOUDY    74  70  87 E13       29.98F
VERO BEACH     LGT RAIN  73  69  87 NE7       29.96F
FT PIERCE      CLOUDY    75  72  90 CALM      29.96F
STUART         DRIZZLE   75  73  94 SW5       29.98R

STATION/POSITION SKY/WX   TEMP    WIND        PRES    WAVE   SWELL
                          AIR SEA DIR/SP/G            HT/PER HT/PER
                          (F)     (DEG/KT/KT) (MB)    (FT/S) (FT/S)
28.5N   80.2W              74 84   80/ 14/ 16 1015.9F
28.9N   78.5W              82 85   80/ 14/ 16 1013.9F   4/ 5   2/ 9
TRIDENT PIER               73 85   60/ 11/ 16 1015.2F
28.4N   80.5W                 84                N/A     3/ 4
27.6N   80.2W                 83                N/A     2/13   2/13

$$
FLZ050-056-061-142-242-148-248-149-249-151-251-155-255-
160-260-200500-
WEST CENTRAL FLORIDA

CITY           SKY/WX    TMP DP  RH WIND       PRES   REMARKS
CRYSTAL RIVER  MOCLDY    70  68  94 N5        30.00R
INVERNESS      DRIZZLE   70  63  78 CALM      30.00F
BROOKSVILLE    LGT RAIN  70  69  97 CALM      30.00S
ZEPHYRHILLS      N/A     64  64 100 E3        30.00S
CLEARWATER     LGT RAIN  72  70  93 E8        29.97F
TAMPA INTL     LGT RAIN  71  68  90 VRB5      29.98F FOG
TAMPA EXEC     RAIN      72  70  94 CALM      29.99S
PLANT CITY     RAIN      72 N/A N/A E6        30.00S
MACDILL AFB    LGT RAIN  72  72 100 E13       29.97S
ST PETERSBURG  LGT RAIN  74  71  91 E17       29.96S
SARASOTA       LGT RAIN  71  70  96 E10       29.94F
VENICE           N/A    N/A N/A N/A MISG        N/A

STATION/POSITION SKY/WX   TEMP    WIND        PRES    WAVE   SWELL
                          AIR SEA DIR/SP/G            HT/PER HT/PER
                          (F)     (DEG/KT/KT) (MB)    (FT/S) (FT/S)
CEDAR KEY                  78     100/  8/ 10 1016.1R
28.5N   84.5W              79 84  100/ 19/ 23 1014.4F   6/ 6
27.3N   84.3W                 85                N/A     3/ 4
CLEARWATER BEACH NOT AVBL
MIDDLE TAMPA BAY           73      90/ 15/ 18 1014.8F
VENICE                     72 86   60/  8/  9 1014.0F

$$
FLZ066-069-070-075>078-162-262-165-265-200500-
SOUTHWEST FLORIDA AND KEYS

CITY           SKY/WX    TMP DP  RH WIND       PRES   REMARKS
PUNTA GORDA    CLOUDY    74  72  93 NE5       29.97F
FT MYERS       CLOUDY    74  73  97 CALM      29.95F
SOUTHWEST INTL LGT RAIN  75  61  61 S5        29.96F
NAPLES         CLOUDY    76  73  91 SE5       29.96S
MARCO ISLAND   CLOUDY    75  73  94 CALM      29.97S
MARATHON       CLOUDY    80  74  81 CALM      29.96F
KEY WEST NAS   CLOUDY    81  75  82 CALM      29.96F
KEY WEST INTL  CLOUDY    83  74  74 SE3       29.97F

STATION/POSITION SKY/WX   TEMP    WIND        PRES    WAVE   SWELL
                          AIR SEA DIR/SP/G            HT/PER HT/PER
                          (F)     (DEG/KT/KT) (MB)    (FT/S) (FT/S)
VENICE                     72 86   60/  8/  9 1014.0F
NAPLES                     79 88  240/  4/  6 1015.1F
DRY TORTUGAS               80      30/  8/  9 1014.5F
NW FL BAY                  83     130/  5/  6 1015.2R
SAND KEY                   83        CALM     1014.7F
SOMBRERO KEY               83      70/  2/  3 1015.2F
LONG KEY                   83 85  140/  4/  5 1015.7R
MOLASSES REEF              83 85   CALM  /  5 1014.4F

$$
FLZ067-068-071>074-168-172>174-200500-
SOUTHEAST FLORIDA

CITY           SKY/WX    TMP DP  RH WIND       PRES   REMARKS
W PALM BEACH   CLOUDY    78  75  90 CALM      29.96R
FT LAUDER-EXEC MOCLDY    76  76 100 CALM      29.97R
FT LAUDERDALE  MOCLDY    78  74  87 SW3       29.97R
POMPANO BEACH  CLOUDY    79  75  87 CALM      29.97R
PEMBROKE PINES MOCLDY    77  75  93 CALM      29.98S
OPA LOCKA      MOCLDY    77  74  90 CALM      29.98R
MIAMI          MOCLDY    77  75  93 CALM      29.98S
WEST KENDALL   MOCLDY    77  73  87 CALM      29.97F
HOMESTEAD      MOCLDY    77  75  93 NW3       29.97F

STATION/POSITION SKY/WX   TEMP    WIND        PRES    WAVE   SWELL
                          AIR SEA DIR/SP/G            HT/PER HT/PER
                          (F)     (DEG/KT/KT) (MB)    (FT/S) (FT/S)
PORT EVERGLADES            78     220/  2/  4 1014.9
VIRGINIA KEY               81 85  130/  2/  3   N/A
LAKE WORTH                 79 85  210/  4/  5 1014.6R
FOWEY ROCKS                81 85  100/  6/  7 1015.0F
SETTLEMENT POINT           76     180/ 10/ 11 1015.6R

$$




USA.gov is the U.S. government's official web portal to all federal, state and local government web resources and services.